[[{"header":{"parameterUnit":"m.s-1","parameterCategory":1,"la1":30.2992,"la2":30.254,"lo1":-89.0895,"lo2":-89.0443,"dy":0.0025,"dx":0.0025,"nx":19,"ny":19,"refTime":"2026-04-29T21:00:00:Z","depth":0,"parameterNumber":2,"parameterNumberName":"U-component_of_WINDS"},"data":[0,0,0,0.9027,0.9028,0.9048,0.9048,0.908,0.908,0,0,0,0,0,0,0,0,0,0,0,0.9023,0.9023,0.9027,0.9028,0.9048,0.9048,0.908,0.908,0,0,0,0,0,0,0,0,0,0,0,0.9023,0.9023,0.9023,0.9028,0.9048,0.9048,0.908,0.9063,0,0,0,0,0,0,0,0,0,0,0.9042,0.9039,0.9023,0.9023,0.9028,0.9048,0.9048,0.9062,0.9064,0.9073,0,0.9079,0,0.908,0.9083,0.9083,0,0,0,0.9027,0.9037,0.9041,0.9023,0.9028,0.9048,0.9039,0.9063,0.9065,0.9075,0.9079,0.908,0.9081,0.9083,0.9083,0.9131,0.9131,0,0,0.9026,0.9027,0.904,0.9043,0.9038,0.9038,0.9039,0.9064,0.9069,0.9079,0.9081,0.9081,0.9083,0.9083,0.9131,0.9131,0,0,0,0.9023,0.9027,0.903,0.9042,0.9045,0.9039,0.904,0.9068,0.9069,0.9081,0.9081,0.9083,0.9084,0.9131,0.9131,0.9144,0,0,0,0.9023,0.9025,0.903,0.9031,0.9044,0.9056,0.9044,0.9068,0.907,0.9081,0.9083,0.9084,0.913,0.9131,0.9143,0.9149,0,0,0,0.9021,0.9025,0.9028,0.9031,0.9039,0.9056,0.9058,0.9068,0.907,0.9083,0.9084,0.913,0.9131,0.9142,0.9148,0.9162,0,0,0,0.902,0.9039,0.9028,0.9051,0.9039,0.9064,0.9058,0.9077,0.9089,0.9083,0.913,0.9131,0.9142,0.9147,0.9161,0.9172,0.9178,0,0,0.9045,0.9042,0.9056,0.9046,0.9073,0.906,0.909,0.91,0.9101,0.9122,0.9123,0.9143,0.9147,0.9161,0.921,0.9214,0,0,0,0.9064,0.9073,0.908,0.9091,0.9099,0.9107,0.9113,0.9118,0.9135,0.9111,0.9153,0.9155,0.9163,0.9169,0.9173,0.9179,0.9134,0.9134,0.9134,0.91,0.91,0.9122,0.9125,0.9136,0.9143,0.9153,0.916,0.9157,0.9168,0.9173,0.9202,0.9208,0.9211,0.9218,0.918,0.918,0.9181,0.9181,0.9136,0.9149,0.9146,0.9165,0.9167,0.9184,0.9193,0.9191,0.9208,0.9197,0.9205,0.9191,0.9215,0.9222,0.9182,0.9181,0.9181,0.9181,0.9181,0.9158,0.9164,0.917,0.9187,0.9201,0.9205,0.9221,0.9223,0.9224,0.9231,0.9237,0.9237,0.9236,0.9234,0.9234,0.9235,0.9235,0.9235,0.9235,0.9178,0.9184,0.9197,0.9209,0.9217,0.9228,0.9238,0.9247,0.9257,0.9256,0.9256,0.9253,0.9218,0.9209,0.9236,0.9236,0.9236,0.9236,0.9236,0.9212,0.9205,0.9225,0.9233,0.9248,0.9263,0.9265,0.9283,0.9291,0.93,0.9296,0.9271,0.9268,0.9265,0.9257,0.9296,0.9296,0.9296,0.9296,0.9229,0.9229,0.925,0.9263,0.9277,0.9281,0.9307,0.9316,0.9324,0.933,0.9325,0.9316,0.9313,0.9312,0.9308,0.93,0.9349,0.9349,0.9349,0.9249,0.925,0.927,0.9277,0.929,0.9302,0.9326,0.9343,0.9352,0.9352,0.9334,0.9332,0.9316,0.9311,0.9307,0.9301,0.9288,0,0]},{"header":{"parameterUnit":"m.s-1","parameterCategory":1,"la1":30.2992,"la2":30.254,"lo1":-89.0895,"lo2":-89.0443,"dy":0.0025,"dx":0.0025,"nx":19,"ny":19,"refTime":"2026-04-29T21:00:00:Z","depth":0,"parameterNumber":3,"parameterNumberName":"V-component_of_WINDS"},"data":[0,0,0,2.0071,2.0077,2.0366,2.0367,2.0723,2.0726,0,0,0,0,0,0,0,0,0,0,0,1.9979,1.9981,2.0071,2.0078,2.0366,2.0367,2.0722,2.0726,0,0,0,0,0,0,0,0,0,0,0,1.9978,1.998,1.9983,2.0079,2.0366,2.0367,2.0721,2.0508,0,0,0,0,0,0,0,0,0,0,2.023,2.0139,1.998,1.9983,2.008,2.0365,2.0368,2.0498,2.0522,2.0586,0,2.0643,0,2.069,2.0749,2.075,0,0,0,2.0083,2.0119,2.0203,1.9984,2.0083,2.0365,2.0237,2.0511,2.0538,2.0617,2.0649,2.0662,2.0696,2.0751,2.0753,2.1109,2.111,0,0,2.0067,2.0027,2.0185,2.022,2.0176,2.0228,2.0246,2.0528,2.0559,2.065,2.0671,2.0702,2.0753,2.0756,2.1108,2.1109,0,0,0,2.0018,2.0016,2.0093,2.0205,2.0258,2.0236,2.0257,2.0546,2.0575,2.0675,2.0706,2.0755,2.076,2.1106,2.1108,2.1139,0,0,0,2.0008,1.9987,2.0086,2.0064,2.0252,2.0406,2.0269,2.0555,2.0588,2.0704,2.0755,2.0763,2.1105,2.1107,2.1135,2.1161,0,0,0,1.9962,1.9982,2.0021,2.0062,2.0184,2.0403,2.0447,2.0563,2.0607,2.075,2.0764,2.1104,2.1107,2.1131,2.1155,2.1241,0,0,0,1.9902,2.0046,2.0021,2.0194,2.0182,2.0419,2.0446,2.0625,2.0752,2.0757,2.1105,2.1108,2.113,2.1151,2.1237,2.1307,2.1332,0,0,2.0062,2.0064,2.0169,2.0155,2.0386,2.0378,2.0615,2.0769,2.0819,2.1009,2.1018,2.1136,2.1154,2.124,2.1489,2.1509,0,0,0,2.0206,2.0281,2.0351,2.0468,2.0588,2.0692,2.0814,2.087,2.1033,2.0909,2.1193,2.1205,2.1257,2.1292,2.1309,2.1355,2.1123,2.1122,2.1122,2.0376,2.0431,2.0607,2.0695,2.0809,2.093,2.1027,2.1123,2.1147,2.1213,2.127,2.1414,2.1454,2.1467,2.1514,2.1311,2.1311,2.1312,2.1312,2.0615,2.0728,2.0753,2.0932,2.0988,2.1139,2.126,2.1271,2.1419,2.1376,2.1425,2.1373,2.1487,2.1531,2.1315,2.1314,2.1314,2.1313,2.1313,2.0732,2.0796,2.086,2.1033,2.116,2.1244,2.1384,2.143,2.1475,2.1523,2.1587,2.1587,2.1592,2.155,2.1551,2.1551,2.1552,2.1552,2.1552,2.0828,2.09,2.1012,2.1148,2.1228,2.1338,2.1459,2.1538,2.1638,2.1661,2.1662,2.1677,2.1488,2.1438,2.156,2.1559,2.1558,2.1557,2.1557,2.1049,2.1005,2.1179,2.1258,2.142,2.1541,2.1597,2.1754,2.1826,2.1893,2.1898,2.175,2.1756,2.1743,2.1703,2.1886,2.1886,2.1886,2.1886,2.1147,2.1154,2.134,2.1463,2.1589,2.1657,2.1848,2.1942,2.2032,2.2079,2.2059,2.201,2.1994,2.201,2.1991,2.1954,2.2197,2.2197,2.2198,2.1286,2.1306,2.1461,2.1548,2.1677,2.1785,2.1966,2.2106,2.2199,2.2211,2.2117,2.2104,2.2025,2.1996,2.2008,2.1977,2.1911,0,0]}]]